TimeEDT,TemperatureF,Dew PointF,Humidity,Sea Level PressureIn,VisibilityMPH,Wind Direction,Wind SpeedMPH,Gust SpeedMPH,PrecipitationIn,Events,Conditions,WindDirDegrees,DateUTC
12:15 AM,52.5,49.3,89,29.62,10.0,West,21.9,31.1,N/A,,Overcast,280,2012-10-15 04:15:00
12:35 AM,52.2,48.9,89,29.62,10.0,West,19.6,28.8,N/A,,Overcast,270,2012-10-15 04:35:00
12:54 AM,52.2,48.7,88,29.64,10.0,West,18.4,27.6,N/A,,Overcast,270,2012-10-15 04:54:00
1:15 AM,52.0,48.2,87,29.65,10.0,West,15.0,28.8,N/A,,Overcast,280,2012-10-15 05:15:00
1:34 AM,51.4,47.8,87,29.65,10.0,West,21.9,28.8,N/A,,Overcast,280,2012-10-15 05:34:00
1:55 AM,51.4,47.7,87,29.66,10.0,West,16.1,25.3,N/A,,Overcast,280,2012-10-15 05:55:00
2:14 AM,51.1,47.5,87,29.67,10.0,West,13.8,25.3,N/A,,Overcast,280,2012-10-15 06:14:00
2:35 AM,50.2,48.4,94,29.68,2.5,West,11.5,16.1,N/A,,Drizzle,280,2012-10-15 06:35:00
2:55 AM,50.2,48.7,95,29.68,4.0,West,17.3,21.9,N/A,,Light Drizzle,270,2012-10-15 06:55:00
3:14 AM,50.0,48.6,95,29.68,5.0,West,17.3,21.9,N/A,,Overcast,270,2012-10-15 07:14:00
3:34 AM,49.6,48.0,94,29.68,10.0,West,13.8,20.7,N/A,,Overcast,270,2012-10-15 07:34:00
3:54 AM,49.5,47.5,93,29.68,10.0,WNW,16.1,-,N/A,,Overcast,290,2012-10-15 07:54:00
4:15 AM,49.3,46.9,92,29.68,10.0,West,16.1,21.9,N/A,,Overcast,280,2012-10-15 08:15:00
4:34 AM,49.3,46.8,91,29.69,10.0,West,15.0,21.9,N/A,,Overcast,280,2012-10-15 08:34:00
4:55 AM,48.9,46.4,91,29.69,10.0,West,17.3,23.0,N/A,,Overcast,280,2012-10-15 08:55:00
5:14 AM,48.9,46.6,92,29.70,10.0,WNW,12.7,19.6,N/A,,Overcast,290,2012-10-15 09:14:00
5:55 AM,48.4,46.4,93,29.71,10.0,West,15.0,21.9,N/A,,Overcast,280,2012-10-15 09:55:00
6:14 AM,48.0,45.7,92,29.72,10.0,WNW,13.8,18.4,N/A,,Overcast,290,2012-10-15 10:14:00
6:35 AM,48.0,45.7,92,29.73,10.0,WNW,11.5,-,N/A,,Overcast,290,2012-10-15 10:35:00
6:54 AM,48.2,45.5,90,29.73,10.0,WNW,11.5,-,N/A,,Overcast,290,2012-10-15 10:54:00
7:15 AM,48.0,45.1,90,29.74,10.0,West,9.2,-,N/A,,Overcast,280,2012-10-15 11:15:00
7:35 AM,48.0,45.0,89,29.75,10.0,West,11.5,16.1,N/A,,Overcast,280,2012-10-15 11:35:00
7:54 AM,48.0,45.0,89,29.75,10.0,WNW,8.1,-,N/A,,Overcast,290,2012-10-15 11:54:00
8:15 AM,48.0,44.8,89,29.76,10.0,WNW,9.2,-,N/A,,Overcast,290,2012-10-15 12:15:00
8:34 AM,47.5,45.0,91,29.77,3.0,WNW,10.4,13.8,N/A,Rain,Light Rain,300,2012-10-15 12:34:00
8:55 AM,47.5,45.5,93,29.77,4.0,WNW,10.4,-,N/A,,Overcast,300,2012-10-15 12:55:00
9:15 AM,47.5,45.5,93,29.78,10.0,WNW,15.0,19.6,N/A,Rain,Light Rain,300,2012-10-15 13:15:00
9:34 AM,47.8,44.6,89,29.78,10.0,WNW,15.0,20.7,N/A,,Overcast,300,2012-10-15 13:34:00
9:55 AM,47.8,44.4,88,29.79,10.0,WNW,11.5,16.1,N/A,,Overcast,300,2012-10-15 13:55:00
10:15 AM,48.2,44.1,86,29.79,10.0,WNW,15.0,-,N/A,,Overcast,300,2012-10-15 14:15:00
10:34 AM,48.6,43.9,84,29.80,10.0,WNW,12.7,-,N/A,,Overcast,290,2012-10-15 14:34:00
10:55 AM,49.3,43.7,81,29.80,10.0,NW,13.8,20.7,N/A,,Overcast,310,2012-10-15 14:55:00
11:15 AM,48.6,43.3,82,29.81,10.0,WNW,17.3,23.0,N/A,,Overcast,290,2012-10-15 15:15:00
11:34 AM,48.6,43.7,83,29.82,10.0,WNW,15.0,19.6,N/A,,Overcast,290,2012-10-15 15:34:00
11:55 AM,48.0,44.6,88,29.82,7.0,WNW,15.0,23.0,N/A,,Overcast,290,2012-10-15 15:55:00
12:15 PM,48.7,44.2,84,29.83,10.0,WNW,11.5,21.9,N/A,,Overcast,300,2012-10-15 16:15:00
12:34 PM,48.9,44.6,85,29.83,10.0,WNW,12.7,21.9,N/A,,Overcast,290,2012-10-15 16:34:00
12:55 PM,48.6,44.6,86,29.84,10.0,WNW,16.1,-,N/A,,Overcast,290,2012-10-15 16:55:00
1:14 PM,48.9,44.1,83,29.84,10.0,WNW,12.7,23.0,N/A,,Overcast,290,2012-10-15 17:14:00
1:35 PM,50.0,44.1,80,29.85,10.0,WNW,13.8,20.7,N/A,,Overcast,290,2012-10-15 17:35:00
1:54 PM,50.0,44.1,80,29.85,10.0,West,18.4,23.0,N/A,,Overcast,280,2012-10-15 17:54:00
2:14 PM,50.4,44.2,80,29.84,10.0,WNW,12.7,18.4,N/A,,Overcast,290,2012-10-15 18:14:00
2:35 PM,49.5,43.3,79,29.85,10.0,NW,15.0,-,N/A,,Overcast,310,2012-10-15 18:35:00
2:54 PM,48.6,43.3,82,29.85,10.0,WNW,15.0,18.4,N/A,,Overcast,300,2012-10-15 18:54:00
3:15 PM,48.6,43.0,81,29.86,10.0,WNW,12.7,21.9,N/A,,Overcast,300,2012-10-15 19:15:00
3:35 PM,49.3,43.0,79,29.86,10.0,WNW,15.0,18.4,N/A,,Overcast,290,2012-10-15 19:35:00
3:54 PM,48.9,42.1,77,29.86,10.0,WNW,12.7,19.6,N/A,,Overcast,290,2012-10-15 19:54:00
4:15 PM,48.6,41.7,77,29.87,10.0,WNW,12.7,-,N/A,,Overcast,290,2012-10-15 20:15:00
4:35 PM,48.4,41.4,77,29.88,10.0,NW,15.0,20.7,N/A,,Overcast,310,2012-10-15 20:35:00
4:54 PM,48.6,41.2,76,29.88,10.0,WNW,11.5,-,N/A,,Overcast,300,2012-10-15 20:54:00
5:15 PM,48.9,39.7,71,29.89,10.0,WNW,16.1,21.9,N/A,,Overcast,290,2012-10-15 21:15:00
5:35 PM,48.6,38.7,69,29.89,10.0,WNW,13.8,-,N/A,,Overcast,300,2012-10-15 21:35:00
5:54 PM,48.6,39.4,71,29.89,10.0,NW,10.4,18.4,N/A,,Overcast,310,2012-10-15 21:54:00
6:15 PM,48.0,39.7,73,29.90,10.0,WNW,11.5,16.1,N/A,,Overcast,300,2012-10-15 22:15:00
6:34 PM,47.8,40.1,75,29.90,10.0,WNW,9.2,-,N/A,,Overcast,300,2012-10-15 22:34:00
6:55 PM,47.7,39.7,74,29.91,10.0,WNW,11.5,18.4,N/A,,Overcast,300,2012-10-15 22:55:00
7:15 PM,47.7,39.9,75,29.91,10.0,NW,9.2,-,N/A,,Overcast,310,2012-10-15 23:15:00
7:34 PM,47.3,40.5,77,29.91,10.0,NW,8.1,-,N/A,,Overcast,310,2012-10-15 23:34:00
7:55 PM,47.1,40.6,78,29.91,10.0,NW,8.1,-,N/A,,Overcast,310,2012-10-15 23:55:00
8:14 PM,46.9,40.1,77,29.92,10.0,WNW,9.2,-,N/A,,Overcast,300,2012-10-16 00:14:00
8:35 PM,46.9,40.3,78,29.92,10.0,WNW,8.1,17.3,N/A,,Overcast,300,2012-10-16 00:35:00
8:55 PM,46.8,40.1,78,29.93,10.0,WNW,6.9,-,N/A,,Overcast,300,2012-10-16 00:55:00
9:14 PM,46.8,40.1,78,29.93,10.0,WNW,6.9,-,N/A,,Overcast,300,2012-10-16 01:14:00
9:35 PM,46.6,40.3,79,29.93,10.0,WNW,6.9,-,N/A,,Overcast,290,2012-10-16 01:35:00
9:54 PM,46.4,40.3,79,29.93,10.0,WNW,6.9,-,N/A,,Overcast,290,2012-10-16 01:54:00
10:15 PM,46.2,40.3,80,29.94,10.0,WNW,8.1,-,N/A,,Overcast,290,2012-10-16 02:15:00
10:35 PM,46.0,40.3,80,29.94,10.0,WNW,5.8,-,N/A,,Overcast,300,2012-10-16 02:35:00
10:54 PM,46.0,39.9,79,29.94,10.0,WNW,5.8,-,N/A,,Overcast,290,2012-10-16 02:54:00
11:15 PM,45.9,39.7,79,29.94,10.0,WNW,5.8,-,N/A,,Overcast,290,2012-10-16 03:15:00
11:35 PM,45.1,38.7,78,29.95,10.0,NW,5.8,-,N/A,,Overcast,310,2012-10-16 03:35:00
11:55 PM,45.0,37.9,76,29.95,10.0,WNW,5.8,-,N/A,,Overcast,300,2012-10-16 03:55:00